This demonstration page uses our WeatherBlox Daily Observations layout. Learn more.

Left ArrowRight Arrow

44.8408, -93.29828

Hourly Observations for March 10, 2022

Temp ( °F °C ) Dew Point ( °F °C ) Humidity (%) Winds ( mph kmh ) Pressure ( in mb ) Visibility ( mi km ) Precip ( " mm )
12:53 am 00:53 Mostly Clear 10 -12.2 -2 -18.9 58 58 WSW 6 9 30.32 1027 10 16 0.00 0.00
1:53 am 01:53 Mostly Clear 10 -12.2 -1 -18.3 61 61 W 6 9 30.32 1027 10 16 0.00 0.00
2:53 am 02:53 Clear 9 -12.8 0 -17.8 66 66 W 8 13 30.32 1027 10 16 0.00 0.00
3:53 am 03:53 Clear 9 -12.8 0 -17.8 66 66 W 5 7 30.31 1027 10 16 0.00 0.00
4:53 am 04:53 Clear 8 -13.3 0 -17.8 69 69 W 5 7 30.32 1027 10 16 0.00 0.00
5:53 am 05:53 Mostly Clear 8 -13.3 2 -16.7 76 76 SW 8 13 30.32 1027 10 16 0.00 0.00
6:53 am 06:53 Mostly Sunny 9 -12.8 2 -16.7 73 73 WSW 7 11 30.32 1027 10 16 0.00 0.00
7:53 am 07:53 Mostly Sunny 12 -11.1 4 -15.6 70 70 WSW 9 15 30.33 1027 10 16 0.00 0.00
8:53 am 08:53 Mostly Sunny 15 -9.4 4 -15.6 61 61 W 8 13 30.32 1027 10 16 0.00 0.00
9:53 am 09:53 Mostly Sunny 17 -8.3 3 -16.1 54 54 WSW 12 19 30.32 1027 10 16 0.00 0.00
10:53 am 10:53 Mostly Sunny 20 -6.7 4 -15.6 50 50 W 13 20 30.31 1026 10 16 0.00 0.00
11:53 am 11:53 Mostly Sunny 22 -5.6 4 -15.6 46 46 W 8 13 30.28 1026 10 16 0.00 0.00
12:53 pm 12:53 Partly Cloudy 23 -5 4 -15.6 44 44 WSW 15 24 30.25 1025 10 16 0.00 0.00
1:53 pm 13:53 Mostly Cloudy 24 -4.4 5 -15 44 44 WSW 14 22 30.21 1023 10 16 0.00 0.00
2:53 pm 14:53 Mostly Cloudy 25 -3.9 6 -14.4 44 44 SSW 13 20 30.18 1022 10 16 0.00 0.00
3:53 pm 15:53 Cloudy 25 -3.9 8 -13.3 48 48 SW 12 19 30.16 1021 10 16 0.00 0.00
4:53 pm 16:53 Mostly Cloudy 26 -3.3 6 -14.4 42 42 W 22 35 30.13 1020 10 16 0.00 0.00
5:53 pm 17:53 Partly Cloudy 24 -4.4 5 -15 44 44 W 16 26 30.12 1020 10 16 0.00 0.00
6:53 pm 18:53 Mostly Clear 23 -5 5 -15 46 46 WSW 9 15 30.11 1020 10 16 0.00 0.00
7:53 pm 19:53 Mostly Clear 23 -5 6 -14.4 48 48 SW 9 15 30.10 1019 10 16 0.00 0.00
8:53 pm 20:53 Mostly Clear 22 -5.6 6 -14.4 50 50 SSW 7 11 30.10 1019 10 16 0.00 0.00
9:53 pm 21:53 Mostly Clear 21 -6.1 6 -14.4 52 52 SSW 6 9 30.08 1019 10 16 0.00 0.00
10:53 pm 22:53 Mostly Clear 21 -6.1 6 -14.4 52 52 SSW 8 13 30.04 1017 10 16 0.00 0.00
11:53 pm 23:53 Mostly Clear 22 -5.6 5 -15 48 48 SSW 9 15 30.01 1016 10 16 0.00 0.00

Powered by AerisWeather